FW4092 Weather Reports


time (UTC)temp
F
wind
direction
speed
knots
gust
knots
rain 1hr
in
rain 24hr
in
rain mn
in
humidity
%
barometer
mb
20260906000607 65 345 5.2 10.4 0.00 0.04 0.01 47 1012.2
20260906000100 65 283 6.1 12.2 0.00 0.04 0.01 47 1012.0
20260905235553 65 355 6.1 12.2 0.00 0.04 0.01 47 1012.1
20260905235046 65 301 5.2 11.3 0.00 0.04 0.01 47 1012.0
20260905234541 67 294 5.2 11.3 0.00 0.04 0.01 46 1012.0
20260905234036 67 342 5.2 10.4 0.00 0.04 0.01 44 1012.0
20260905233526 68 321 6.1 12.2 0.00 0.04 0.01 43 1012.0
20260905233022 68 296 6.1 14.8 0.00 0.04 0.01 42 1012.0
20260905232516 68 17 5.2 14.8 0.00 0.04 0.01 43 1012.0
20260905232011 68 298 3.5 9.6 0.00 0.04 0.01 42 1012.1
20260905231734 68 326 2.6 8.7 0.00 0.04 0.01 42 1012.1
20260905230953 68 5 1.7 4.3 0.00 0.04 0.01 42 1012.1
20260905230723 68 323 2.6 6.1 0.00 0.04 0.01 41 1012.1
20260905225947 68 336 1.7 7.8 0.00 0.04 0.01 41 1012.1
20260905225441 68 44 2.6 7.8 0.00 0.05 0.01 41 1012.2
20260905225203 69 5 2.6 7.8 0.00 0.05 0.01 41 1012.2
20260905224430 69 338 1.7 6.1 0.00 0.06 0.01 41 1012.1
20260905223923 69 321 1.7 6.1 0.00 0.06 0.01 41 1012.1
20260905223417 69 322 1.7 5.2 0.00 0.06 0.01 40 1012.2
20260905222911 69 84 0.9 5.2 0.00 0.06 0.01 42 1012.2
20260905222405 68 12 1.7 5.2 0.00 0.06 0.01 43 1012.3
20260905221859 67 76 1.7 7.0 0.00 0.06 0.01 44 1012.3
20260905221353 67 81 1.7 7.0 0.00 0.06 0.01 43 1012.3
20260905221112 67 69 0.9 4.3 0.00 0.06 0.01 43 1012.4
20260905220610 68 57 1.7 7.0 0.00 0.06 0.01 44 1012.2
20260905220107 68 346 2.6 7.0 0.00 0.06 0.01 43 1012.3
20260905215331 68 355 1.7 4.3 0.00 0.06 0.01 44 1012.4
20260905214821 67 346 0.9 3.5 0.00 0.06 0.01 44 1012.6
20260905214319 68 335 2.6 7.8 0.00 0.06 0.01 44 1012.6
20260905213811 69 355 2.6 7.8 0.00 0.06 0.01 42 1012.6
20260905213530 69 16 1.7 6.1 0.00 0.06 0.01 43 1012.7
20260905212803 68 34 1.7 5.2 0.00 0.06 0.01 45 1012.8
20260905212253 68 11 1.7 4.3 0.00 0.06 0.01 45 1012.7
20260905211747 68 11 1.7 4.3 0.00 0.06 0.01 44 1012.8
20260905211241 68 57 1.7 4.3 0.00 0.06 0.01 45 1012.9
20260905210735 68 63 0.9 3.5 0.00 0.06 0.01 46 1012.9
20260905210229 67 118 0.9 3.5 0.00 0.06 0.01 45 1013.0
20260905205723 67 90 0.9 6.1 0.00 0.06 0.01 46 1013.0
20260905205217 67 72 1.7 7.0 0.00 0.06 0.01 45 1013.0
20260905204711 67 17 2.6 7.0 0.00 0.06 0.01 47 1013.0
20260905204433 67 60 1.7 5.2 0.00 0.06 0.01 47 1013.0
20260905203700 67 348 0.9 4.3 0.00 0.06 0.01 46 1013.2
20260905203153 67 80 1.7 7.0 0.00 0.06 0.01 49 1013.1
20260905202646 66 96 0.9 7.0 0.00 0.06 0.01 49 1013.2
20260905202143 65 44 0.0 3.5 0.00 0.06 0.01 48 1013.2
20260905201642 65 0 0.9 5.2 0.00 0.06 0.01 50 1013.3
20260905201149 65 201 0.9 5.2 0.00 0.06 0.01 50 1013.3
20260905201143 65 199 0.9 5.2 0.00 0.06 0.01 49 1013.3
20260905200139 64 104 1.7 6.1 0.00 0.06 0.01 49 1013.4
20260905195651 64 171 1.7 7.0 0.00 0.06 0.01 50 1013.4
20260905195139 64 138 0.9 7.0 0.00 0.06 0.01 51 1013.5
20260905194639 64 131 0.9 4.3 0.00 0.06 0.01 52 1013.5
20260905194135 63 119 1.7 4.3 0.00 0.06 0.01 53 1013.6
20260905193635 63 172 0.9 4.3 0.00 0.06 0.01 54 1013.8
20260905193402 62 105 0.9 3.5 0.00 0.06 0.01 56 1013.6
20260905192636 62 99 0.9 5.2 0.00 0.06 0.01 56 1013.8
20260905192405 62 91 1.7 5.2 0.00 0.06 0.01 57 1013.9
20260905191635 62 80 1.7 5.2 0.00 0.06 0.01 55 1014.0
20260905191408 62 89 1.7 5.2 0.00 0.06 0.01 54 1014.0
20260905190635 62 96 0.9 2.6 0.00 0.06 0.01 59 1014.0
20260905190135 61 47 1.7 4.3 0.00 0.06 0.01 59 1013.9
20260905185907 62 51 1.7 6.1 0.00 0.06 0.01 59 1014.0
20260905185134 62 55 1.7 6.1 0.00 0.06 0.01 60 1014.1
20260905184628 61 114 1.7 5.2 0.00 0.06 0.01 63 1014.0
20260905184122 60 63 1.7 5.2 0.00 0.06 0.01 66 1014.0
20260905183616 60 89 1.7 6.1 0.00 0.06 0.01 65 1014.1
20260905183110 60 100 1.7 6.1 0.00 0.06 0.01 66 1014.2
20260905182604 59 78 0.9 6.1 0.00 0.06 0.01 69 1014.3
20260905182059 59 114 0.9 3.5 0.00 0.06 0.01 71 1014.4
20260905181552 58 127 1.7 5.2 0.00 0.06 0.01 71 1014.5
20260905181044 57 121 0.9 5.2 0.00 0.06 0.01 74 1014.6
20260905180819 55 96 0.9 3.5 0.00 0.06 0.01 78 1014.6
20260905180543 56 139 0.9 4.3 0.00 0.06 0.01 75 1014.7
20260905175020 54 90 0.9 3.5 0.00 0.06 0.01 81 1014.8
20260905174514 53 147 0.9 5.2 0.00 0.06 0.01 82 1014.8
20260905174009 53 148 0.9 5.2 0.00 0.06 0.01 82 1015.0
20260905173502 52 166 0.9 5.2 0.00 0.06 0.01 86 1015.0
20260905173006 51 123 0.0 2.6 0.00 0.06 0.01 88 1015.0
20260905173000 51 171 0.9 5.2 0.00 0.06 0.01 85 1015.1
20260905171944 50 116 0.9 3.5 0.00 0.06 0.01 90 1015.0
20260905171438 49 105 0.9 3.5 0.00 0.06 0.01 91 1015.0
20260905170932 48 135 0.9 3.5 0.00 0.06 0.01 91 1015.0
20260905170427 47 134 0.9 3.5 0.00 0.06 0.01 91 1015.0
20260905165920 47 136 0.0 3.5 0.00 0.06 0.01 91 1014.8
20260905165417 47 136 0.9 3.5 0.00 0.06 0.01 93 1015.0
20260905165142 47 134 1.7 5.2 0.00 0.06 0.01 93 1015.0
20260905164930 46 142 1.7 5.2 0.00 0.06 0.01 93 1014.8
20260905164920 47 134 1.7 5.2 0.00 0.06 0.01 93 1015.0
20260905163856 46 138 1.7 4.3 0.00 0.06 0.01 93 1014.8
20260905163350 46 149 1.7 5.2 0.00 0.06 0.01 93 1014.8
20260905162844 46 133 0.9 5.2 0.00 0.06 0.01 93 1015.0
20260905162837 46 148 0.9 6.1 0.00 0.06 0.01 93 1015.1
20260905161815 46 139 0.9 4.3 0.00 0.06 0.01 95 1015.0
20260905160541 44 148 0.0 2.6 0.00 0.06 0.01 95 1015.1
20260905155808 44 150 0.0 2.6 0.00 0.06 0.01 94 1015.2
20260905155305 44 153 0.0 1.7 0.00 0.06 0.01 95 1015.2
20260905154756 44 153 0.0 2.6 0.00 0.06 0.01 95 1015.2
20260905154250 44 153 0.9 2.6 0.00 0.06 0.01 95 1015.1
20260905153744 44 153 0.9 5.2 0.00 0.06 0.01 94 1015.0
20260905153244 44 157 0.9 5.2 0.00 0.06 0.01 95 1015.0
20260905152742 44 140 1.7 7.8 0.00 0.06 0.01 95 1014.8
20260905152242 44 148 1.7 7.8 0.00 0.06 0.01 95 1015.0
20260905152009 45 143 1.7 6.1 0.00 0.06 0.01 95 1015.1
20260905151512 45 142 1.7 6.1 0.00 0.06 0.01 96 1015.1
20260905151006 45 157 1.7 5.2 0.00 0.06 0.01 96 1015.1
20260905150241 44 149 1.7 4.3 0.00 0.06 0.01 96 1015.1
20260905145742 44 150 1.7 4.3 0.00 0.06 0.01 96 1015.1
20260905145507 43 157 1.7 4.3 0.00 0.06 0.01 96 1015.0
20260905144742 43 155 1.7 4.3 0.00 0.06 0.01 96 1015.0
20260905144242 42 140 1.7 5.2 0.00 0.06 0.01 96 1014.8
20260905143742 42 151 1.7 5.2 0.00 0.06 0.01 96 1014.8
20260905143242 42 149 0.9 6.1 0.00 0.06 0.01 96 1014.8
20260905142742 42 154 0.9 6.1 0.00 0.06 0.01 96 1014.7
20260905142243 42 143 2.6 6.1 0.00 0.06 0.01 96 1014.7
20260905141745 42 144 2.6 6.1 0.00 0.06 0.01 96 1014.5
20260905141238 41 141 1.7 4.3 0.00 0.06 0.01 96 1014.5
20260905140738 41 152 1.7 4.3 0.00 0.06 0.01 96 1014.5
20260905140506 41 136 1.7 4.3 0.00 0.06 0.01 96 1014.4
20260905135737 41 146 1.7 4.3 0.00 0.06 0.01 96 1014.5
20260905135238 41 148 0.9 3.5 0.00 0.06 0.01 96 1014.4
20260905135001 41 146 1.7 4.3 0.00 0.06 0.01 96 1014.4
20260905134238 41 145 1.7 4.3 0.00 0.06 0.01 96 1014.4
20260905133738 41 159 2.6 6.1 0.00 0.06 0.01 96 1014.4
20260905133237 41 146 2.6 6.1 0.00 0.06 0.01 96 1014.3
20260905132733 41 161 2.6 6.1 0.00 0.06 0.01 96 1014.4
20260905132234 41 140 2.6 6.1 0.00 0.06 0.01 96 1014.4
20260905131734 41 144 2.6 6.1 0.00 0.06 0.01 95 1014.3
20260905131234 41 155 2.6 7.0 0.00 0.06 0.01 96 1014.3
20260905130735 41 155 1.7 7.0 0.00 0.06 0.01 96 1014.3
20260905130724 41 170 1.7 6.1 0.00 0.06 0.01 96 1014.4
20260905125732 41 147 1.7 5.2 0.00 0.06 0.01 96 1014.3
20260905125232 40 144 0.9 3.5 0.00 0.06 0.01 96 1014.2
20260905124732 40 146 0.9 3.5 0.00 0.06 0.01 95 1014.3
20260905124232 40 146 0.9 3.5 0.00 0.06 0.01 95 1014.5
20260905123734 40 143 0.9 3.5 0.00 0.06 0.01 95 1014.5
20260905123231 40 136 1.7 6.1 0.00 0.06 0.01 95 1014.5
20260905122730 41 128 1.7 6.1 0.00 0.06 0.01 95 1014.4
20260905122219 41 147 0.9 4.3 0.00 0.06 0.01 95 1014.3
20260905121712 41 150 0.9 4.3 0.00 0.06 0.01 95 1014.4
20260905121206 41 149 1.7 3.5 0.00 0.06 0.01 95 1014.4
20260905120659 41 138 0.9 3.5 0.00 0.06 0.01 95 1014.4
20260905120152 41 140 0.0 2.6 0.00 0.06 0.01 95 1014.4
20260905115646 41 139 0.0 1.7 0.00 0.06 0.01 95 1014.3
20260905115140 41 138 0.0 1.7 0.00 0.06 0.01 95 1014.2
20260905114634 41 138 0.0 2.6 0.00 0.06 0.01 95 1014.3
20260905114128 41 130 0.9 3.5 0.00 0.06 0.01 95 1014.3
20260905113621 41 128 0.9 3.5 0.00 0.06 0.01 95 1014.3
20260905113117 41 134 0.9 2.6 0.00 0.06 0.01 95 1014.3
20260905112609 41 142 0.0 1.7 0.00 0.06 0.01 95 1014.4
20260905112106 41 142 0.0 0.9 0.00 0.06 0.01 95 1014.4
20260905111601 41 142 0.0 0.9 0.00 0.06 0.01 95 1014.4
20260905111051 41 142 0.0 0.9 0.00 0.06 0.01 95 1014.4
20260905110546 41 142 0.0 1.7 0.00 0.06 0.01 95 1014.4
20260905110040 42 142 0.0 1.7 0.00 0.06 0.01 95 1014.4
20260905105534 42 142 0.0 0.9 0.00 0.06 0.01 95 1014.4
20260905105029 42 142 0.0 0.0 0.00 0.06 0.01 95 1014.5
20260905104749 42 142 0.0 0.0 0.00 0.06 0.01 95 1014.5
20260905104021 42 142 0.0 0.0 0.00 0.06 0.01 95 1014.5
20260905103511 42 142 0.0 0.0 0.00 0.06 0.01 95 1014.5
20260905103003 43 142 0.0 2.6 0.00 0.06 0.01 95 1014.5
20260905102459 43 142 0.9 3.5 0.00 0.06 0.01 95 1014.4
20260905101955 43 143 0.9 3.5 0.00 0.06 0.01 95 1014.4
20260905101446 43 157 0.9 3.5 0.00 0.06 0.01 95 1014.3
20260905100940 43 159 0.9 1.7 0.00 0.06 0.01 95 1014.4
20260905100659 43 150 0.0 1.7 0.00 0.06 0.01 95 1014.4
20260905095928 43 147 0.9 2.6 0.00 0.06 0.01 95 1014.4
20260905095422 43 144 0.9 3.5 0.00 0.06 0.01 95 1014.4
20260905094919 43 150 0.9 3.5 0.00 0.06 0.01 95 1014.4
20260905094411 43 146 0.0 1.7 0.01 0.06 0.01 95 1014.4
20260905093904 44 146 0.9 3.5 0.01 0.06 0.01 95 1014.4
20260905093627 44 144 1.7 3.5 0.01 0.06 0.01 95 1014.4
20260905092853 44 144 1.7 3.5 0.01 0.06 0.01 95 1014.5
20260905092611 44 140 1.7 3.5 0.01 0.06 0.01 95 1014.4
20260905091841 44 142 0.9 3.5 0.01 0.06 0.01 95 1014.4
20260905091342 44 139 0.0 1.7 0.01 0.06 0.01 95 1014.4
20260905090841 44 139 0.9 2.6 0.01 0.06 0.01 95 1014.5
20260905090608 44 139 0.0 2.6 0.01 0.06 0.01 95 1014.5
20260905085841 44 139 0.0 0.9 0.01 0.06 0.01 95 1014.4
20260905085605 44 139 0.0 0.9 0.01 0.06 0.01 95 1014.5
20260905084842 44 139 0.0 1.7 0.01 0.06 0.01 95 1014.5
20260905084341 44 139 0.9 2.6 0.00 0.05 0.00 94 1014.5
20260905084039 44 139 0.9 2.6 0.00 0.05 0.00 94 1014.4
20260905082839 45 138 0.9 3.5 0.00 0.05 0.00 94 1014.2
20260905082605 45 145 0.9 3.5 0.00 0.05 0.00 94 1014.1
20260905081838 45 148 0.9 2.6 0.00 0.05 0.00 94 1014.2
20260905081339 45 148 0.9 2.6 0.00 0.05 0.00 95 1014.2
20260905080835 45 148 0.0 1.7 0.00 0.05 0.00 95 1014.0
20260905080335 45 148 0.0 2.6 0.00 0.05 0.00 95 1014.1
20260905080106 45 147 0.9 2.6 0.00 0.05 0.00 95 1014.0
20260905075337 45 148 0.9 2.6 0.00 0.05 0.00 94 1014.1
20260905074835 45 148 0.9 2.6 0.00 0.05 0.00 94 1013.9
20260905074335 45 147 0.9 3.5 0.00 0.05 0.00 94 1014.0
20260905073835 45 147 0.9 3.5 0.00 0.05 0.00 94 1013.8
20260905073335 45 169 0.9 3.5 0.00 0.05 0.00 94 1013.9
20260905073059 45 171 0.9 2.6 0.00 0.05 0.00 94 1013.8
20260905072334 45 171 0.9 2.6 0.00 0.05 0.00 94 1013.6
20260905072057 45 171 0.9 1.7 0.00 0.05 0.00 94 1013.6
20260905071335 45 171 0.9 2.6 0.00 0.05 0.00 94 1013.6
20260905070836 45 172 0.9 2.6 0.00 0.05 0.00 94 1013.6
20260905070555 45 191 0.0 1.7 0.00 0.05 0.00 93 1013.5
20260905065835 45 192 0.9 2.6 0.00 0.05 0.05 93 1013.5
20260905065334 45 192 0.9 2.6 0.00 0.05 0.05 93 1013.5
20260905064832 45 196 0.0 1.7 0.00 0.05 0.05 93 1013.3
20260905064815 45 197 0.0 0.9 0.00 0.05 0.05 93 1013.3
20260905064058 45 197 0.0 0.9 0.00 0.05 0.05 93 1013.3
20260905063330 45 197 0.0 0.9 0.00 0.05 0.05 92 1013.3
20260905062831 45 199 0.0 0.9 0.00 0.05 0.05 92 1013.3
20260905062331 46 199 0.0 0.0 0.00 0.05 0.05 91 1013.2
20260905061828 46 199 0.0 0.9 0.00 0.05 0.05 91 1013.2
20260905061556 46 199 0.9 3.5 0.00 0.05 0.05 92 1013.3
20260905060822 46 199 0.9 3.5 0.00 0.05 0.05 92 1013.2
20260905060547 46 198 0.9 2.6 0.00 0.05 0.05 92 1013.2
20260905055810 47 197 0.9 2.6 0.00 0.05 0.05 92 1013.3
20260905055306 47 194 1.7 4.3 0.00 0.05 0.05 92 1013.3
20260905054758 47 191 0.9 4.3 0.00 0.05 0.05 92 1013.4
20260905054746 47 226 0.9 2.6 0.00 0.05 0.05 92 1013.5
20260905053746 47 228 0.0 2.6 0.00 0.05 0.05 92 1013.5
20260905053240 48 233 0.9 1.7 0.00 0.05 0.05 92 1013.4
20260905052733 48 233 0.9 1.7 0.00 0.05 0.05 93 1013.4
20260905052228 48 245 0.0 1.7 0.00 0.05 0.05 92 1013.3
20260905051722 48 249 0.0 1.7 0.01 0.05 0.05 92 1013.4
20260905051216 48 251 0.0 0.9 0.01 0.05 0.05 92 1013.2
20260905050711 48 251 0.0 0.9 0.01 0.05 0.05 92 1013.2
20260905050204 49 251 0.0 0.9 0.02 0.05 0.05 91 1013.4
20260905050151 49 251 0.0 0.9 0.03 0.05 0.05 91 1013.3
20260905045152 49 251 0.0 0.9 0.03 0.05 0.05 91 1013.3
20260905044646 49 251 0.9 2.6 0.03 0.05 0.05 91 1013.3
20260905044140 49 252 0.9 2.6 0.03 0.05 0.05 91 1013.3
20260905043634 49 253 0.9 2.6 0.03 0.05 0.05 90 1013.3
20260905043129 49 253 0.0 2.6 0.03 0.05 0.05 90 1013.2
20260905042622 49 247 0.0 2.6 0.03 0.05 0.05 90 1013.2
20260905042115 50 245 0.0 2.6 0.03 0.05 0.05 89 1013.2
20260905041610 50 242 0.0 0.0 0.02 0.04 0.04 88 1013.2
20260905041104 50 242 0.0 0.0 0.02 0.04 0.04 87 1013.1
20260905040558 51 240 0.0 0.0 0.02 0.04 0.04 87 1013.1
20260905040052 51 238 0.0 2.6 0.00 0.02 0.03 85 1013.3
20260905035747 51 238 0.9 3.5 0.00 0.02 0.02 84 1013.3
20260905034534 51 226 1.7 4.3 0.00 0.02 0.02 84 1013.4
20260905034254 51 203 1.7 6.1 0.00 0.02 0.02 85 1013.4
20260905033522 51 207 2.6 6.1 0.00 0.02 0.02 85 1013.4
20260905033015 51 233 2.6 6.1 0.00 0.02 0.02 85 1013.3
20260905032509 51 217 2.6 6.1 0.00 0.02 0.02 85 1013.2
20260905032008 51 220 1.7 5.2 0.00 0.02 0.02 85 1013.1
20260905031508 51 238 2.6 7.0 0.00 0.02 0.02 85 1013.0
20260905031006 51 249 3.5 7.0 0.00 0.02 0.02 85 1013.0
20260905030507 51 256 2.6 7.0 0.00 0.02 0.02 84 1013.0
20260905030005 51 256 1.7 5.2 0.00 0.02 0.02 83 1012.9
20260905025506 52 279 1.7 5.2 0.00 0.02 0.02 82 1012.7
20260905025006 52 291 1.7 3.5 0.00 0.02 0.02 80 1012.7
20260905024504 52 297 0.9 3.5 0.00 0.02 0.02 79 1012.6
20260905024004 53 298 0.9 3.5 0.00 0.02 0.02 78 1012.6
20260905023504 53 298 1.7 5.2 0.00 0.02 0.02 77 1012.4
20260905023004 54 297 1.7 5.2 0.00 0.02 0.02 77 1012.4
20260905022504 54 294 1.7 5.2 0.00 0.02 0.02 76 1012.4
20260905022004 55 283 1.7 6.1 0.00 0.02 0.02 75 1012.6
20260905021504 55 232 1.7 6.1 0.00 0.02 0.02 73 1012.6
20260905021004 56 281 0.9 5.2 0.00 0.02 0.02 74 1012.4
20260905020504 56 261 0.0 2.6 0.00 0.02 0.02 69 1012.6
20260905020003 56 268 0.9 2.6 0.00 0.02 0.02 67 1012.3
20260905015505 56 259 0.9 4.3 0.00 0.02 0.02 67 1012.3
20260905015004 56 257 0.9 4.3 0.00 0.02 0.02 66 1012.1
20260905014504 56 257 0.9 3.5 0.00 0.02 0.02 66 1012.1
20260905014004 57 265 0.9 3.5 0.00 0.02 0.02 63 1012.0
20260905013504 57 273 1.7 5.2 0.00 0.02 0.02 62 1012.0
20260905013002 58 269 1.7 5.2 0.00 0.02 0.02 60 1012.0
20260905012704 59 279 1.7 5.2 0.00 0.02 0.02 60 1012.0
20260905011502 60 294 0.9 3.5 0.00 0.02 0.02 57 1011.9
20260905011227 60 286 1.7 3.5 0.00 0.02 0.02 58 1011.9
20260905010500 60 296 1.7 3.5 0.00 0.02 0.02 60 1011.9
20260905005959 59 324 0.9 3.5 0.00 0.02 0.02 61 1011.9
20260905005459 59 333 0.9 3.5 0.00 0.02 0.02 63 1011.9
20260905005000 58 299 0.9 2.6 0.00 0.02 0.02 66 1011.7
20260905004459 58 299 0.0 2.6 0.00 0.02 0.02 65 1011.6
20260905004219 57 294 0.0 2.6 0.00 0.02 0.02 68 1011.5
20260905003454 57 295 0.9 2.6 0.00 0.02 0.02 68 1011.5
20260905002954 57 296 0.9 3.5 0.00 0.02 0.02 68 1011.5
20260905002453 57 295 1.7 5.2 0.00 0.02 0.02 71 1011.5
20260905001951 56 294 1.7 5.2 0.00 0.02 0.02 72 1011.5
20260905001447 56 285 1.7 5.2 0.00 0.02 0.02 71 1011.5
20260905001430 56 299 1.7 6.1 0.00 0.02 0.02 70 1011.4